Regional Weather Roundup
Issued by NWS Spokane, WA

Home | Current Version | Previous Version | Text Only | Print | Product List | Glossary On
Versions: 1 2 3 4 5 6 7 8 9 10 11 12 13 14 15 16 17 18 19 20 21 22 23 24 25 26 27 28 29 30 31 32 33 34 35 36 37 38 39 40 41 42 43 44 45 46 47 48 49 50
773
NZUS01 KOTX 210757
RWROTX

Eastern Washington/Northern Idaho Roundup
National Weather Service, Spokane WA
1200 AM PST SAT JAN 21 2017

Note: "fair" indicated few or no clouds below 12,000 feet with no
significant weather and/or obstructions to visibility.

...Northeast Washington and Northern Idaho Panhandle...

CITY           SKY/WX    TMP DP  RH WIND       PRES   REMARKS
Spokane Intl   CLOUDY    36  29  75 NE7       29.23S
Spokane Downto CLOUDY    36  31  82 CALM      29.25S
Deer Park      CLOUDY    37  28  70 N12       29.25S

...Southeast Washington and southern Idaho Panhandle...

CITY           SKY/WX    TMP DP  RH WIND       PRES   REMARKS
Walla Walla    CLOUDY    32  30  92 CALM      29.24R FOG
Lowell           N/A     31  29  92 CALM      29.33S

...Columbia Basin...

CITY           SKY/WX    TMP DP  RH WIND       PRES   REMARKS
Ephrata        MIX PCPN  36  29  75 N7        29.23S
Moses Lake     CLOUDY    35  32  88 SW3       29.25R
Pasco          CLOUDY    33  32  96 CALM      29.28R FOG
Hermiston      CLOUDY    33  32  96 W3        29.25S FOG
Pendleton      CLOUDY    33  32  96 N7        29.22R FOG     WCI  27

...East Slopes Cascades...

CITY           SKY/WX    TMP DP  RH WIND       PRES   REMARKS
The Dalles     CLOUDY    33  33 100 CALM      29.29R FOG
Yakima         LGT RAIN  36  34  92 W5        29.26S
Ellensburg     LGT RAIN  34  31  88 E3        29.23S VSB 1/4
Omak           CLOUDY    35  30  82 N14       29.27F WCI  26

...Southern British Columbia...

CITY           SKY/WX    TMP DP  RH WIND       PRES   REMARKS

...Western Montana...

CITY           SKY/WX    TMP DP  RH WIND       PRES   REMARKS
Missoula       CLOUDY    24  23  96 E5        29.33F FOG     WCI  18

...Neighboring Cities...

CITY           SKY/WX    TMP DP  RH WIND       PRES   REMARKS
Seattle        CLOUDY    42  39  89 S3        29.20R
Portland       CLOUDY    39  35  86 SE12      29.22R
Boise          CLOUDY    35  31  85 SE12      29.27S WCI  27
Great Falls    CLEAR     24  17  74 S9        29.31F WCI  14



USA.gov is the U.S. government's official web portal to all federal, state and local government web resources and services.